Terminal Aerodrome Forecast
Issued by NWS Twin Cities, MN

Home | Current Version | Previous Version | Text Only | Print | Product List | Glossary Off
Versions: 1 2 3 4 5 6 7 8 9 10 11 12 13 14 15 16 17 18 19 20 21 22 23 24 25 26 27 28 29 30 31 32 33 34

000
FTUS43 KMPX 240537
TAFMSP
TAF
KMSP 240537Z 2406/2512 14009KT P6SM BKN018
      TEMPO 2406/2408 SCT018
     FM240800 13009KT P6SM BKN020
     FM241700 13012G18KT P6SM SCT020 BKN150
     FM250000 12013G18KT 6SM -RASN BKN025 OVC090
     FM250100 12013KT 1SM -SN BR OVC015
      TEMPO 2503/2506 1/2SM SN FG=

USA.gov is the U.S. government's official web portal to all federal, state and local government web resources and services.